Simultaneous Nadir Overpasses (SNOs) Predictions

Prediction of SNOs between GOES-14 and NOAA-20 Satellite Orbit:

Table of predicted SNOs for the next 14.0 days since TLE Epoch: 9/7/2024
Index Date Time (GOES-14) GOES-14 Lat,Lon NOAA-20 Lat,Lon Distance(km) Time Diff (sec)
1 09/07/2024 08:23:08 -0.00,-108.39 -0.71,-105.23 360.03 80
2 09/08/2024 20:45:01 0.01,-108.35 -0.48,-110.53 248.40 80
3 09/09/2024 20:28:55 0.00,-108.35 0.54,-105.99 269.18 80
4 09/11/2024 08:50:40 -0.01,-108.41 0.61,-111.26 324.57 80
5 09/12/2024 08:29:12 -0.01,-108.40 -0.36,-106.71 192.26 80
6 09/13/2024 20:51:06 0.01,-108.34 -0.80,-112.01 417.61 80
7 09/14/2024 20:34:58 0.01,-108.34 0.18,-107.46 99.77 80
8 09/16/2024 08:56:44 -0.01,-108.41 0.95,-112.73 493.17 80
9 09/17/2024 08:35:16 -0.01,-108.40 -0.03,-108.19 24.00 80
10 09/19/2024 20:38:21 0.01,-108.34 -0.15,-108.94 68.68 80
11 09/20/2024 20:22:14 0.01,-108.34 0.91,-104.41 448.95 80
